User: anonymous   Login
Location: Unspecified
(0.0000°N, 0.0000°E)
Time: 20:11:21
(UTC+00:00)
Language:

Tubsat - Orbit

View from above orbital plane
View from above orbital plane
View from above satellite
View from above satellite

Ground track
Ground track

The orbit data is extracted from the following two-line orbital elements,

1 25757U 99029B   19341.40666468 -.00000032  00000-0  35706-5 0  9995
2 25757  98.4177 263.5680 0015612  60.7701 299.5053 14.51411503 87496
Epoch (UTC): 07 December 2019 09:45:35
Eccentricity: 0.0015612
inclination: 98.4177°
perigee height: 710 km
apogee height: 732 km
right ascension of ascending node: 263.5680°
argument of perigee: 60.7701°
revolutions per day: 14.51411503
mean anomaly at epoch: 299.5053°
orbit number at epoch: 8749

The dashed part of the orbit path shows where the satellite is in the earth's shadow,  

DLR